Time,TemperatureF,DewpointF,PressureIn,WindDirection,WindDirectionDegrees,WindSpeedMPH,WindSpeedGustMPH,Humidity,HourlyPrecipIn,Conditions,Clouds,dailyrainin,SolarRadiationWatts/m^2,SoftwareType,DateUTC
2013-01-11 00:01:00,34.0,32.0,-100.00,South,190,8.0,19.0,92,0.00,,,0.00,0.000000,,2013-01-11 06:01:00,
2013-01-11 00:33:00,34.0,32.0,-100.00,South,190,8.0,19.0,92,0.00,,,0.00,0.000000,,2013-01-11 06:33:00,
2013-01-11 00:42:00,34.0,32.0,-100.00,South,190,8.0,19.0,92,0.00,,,0.00,0.000000,,2013-01-11 06:42:00,
2013-01-11 00:52:00,34.0,32.0,-100.00,South,190,8.0,19.0,92,0.00,,,0.00,0.000000,,2013-01-11 06:52:00,
2013-01-11 01:01:00,34.0,32.0,-100.00,SSW,192,8.0,23.0,93,0.00,,,0.00,0.000000,,2013-01-11 07:01:00,
2013-01-11 01:22:00,34.0,32.0,-100.00,SSW,192,8.0,23.0,93,0.00,,,0.00,0.000000,,2013-01-11 07:22:00,
2013-01-11 01:32:00,34.0,32.0,-100.00,SSW,192,8.0,23.0,93,0.00,,,0.00,0.000000,,2013-01-11 07:32:00,
2013-01-11 01:42:00,34.0,32.0,-100.00,SSW,192,8.0,23.0,93,0.00,,,0.00,0.000000,,2013-01-11 07:42:00,
2013-01-11 01:52:00,34.0,32.0,-100.00,SSW,192,8.0,23.0,93,0.00,,,0.00,0.000000,,2013-01-11 07:52:00,
2013-01-11 02:01:00,34.0,32.0,-100.00,SSW,211,8.0,18.0,94,0.00,,,0.00,0.000000,,2013-01-11 08:01:00,
2013-01-11 02:32:00,34.0,32.0,-100.00,SSW,211,8.0,18.0,94,0.00,,,0.00,0.000000,,2013-01-11 08:32:00,
2013-01-11 02:42:00,34.0,32.0,-100.00,SSW,211,8.0,18.0,94,0.00,,,0.00,0.000000,,2013-01-11 08:42:00,
2013-01-11 02:53:00,34.0,32.0,-100.00,SSW,211,8.0,18.0,94,0.00,,,0.00,0.000000,,2013-01-11 08:53:00,
2013-01-11 03:01:00,34.0,33.0,-100.00,SSW,204,6.0,15.0,95,0.00,,,0.00,0.000000,,2013-01-11 09:01:00,
2013-01-11 03:32:00,34.0,33.0,-100.00,SSW,204,6.0,15.0,95,0.00,,,0.00,0.000000,,2013-01-11 09:32:00,
2013-01-11 03:42:00,34.0,33.0,-100.00,SSW,204,6.0,15.0,95,0.00,,,0.00,0.000000,,2013-01-11 09:42:00,
2013-01-11 03:52:00,34.0,33.0,-100.00,SSW,204,6.0,15.0,95,0.00,,,0.00,0.000000,,2013-01-11 09:52:00,
2013-01-11 04:01:00,34.0,33.0,-100.00,SSW,206,8.0,14.0,96,0.00,,,0.00,0.000000,,2013-01-11 10:01:00,
2013-01-11 04:32:00,34.0,33.0,-100.00,SSW,206,8.0,14.0,96,0.00,,,0.00,0.000000,,2013-01-11 10:32:00,
2013-01-11 04:43:00,34.0,33.0,-100.00,SSW,206,8.0,14.0,96,0.00,,,0.00,0.000000,,2013-01-11 10:43:00,
2013-01-11 04:52:00,34.0,33.0,-100.00,SSW,206,8.0,14.0,96,0.00,,,0.00,0.000000,,2013-01-11 10:52:00,
2013-01-11 05:01:00,35.0,34.0,-100.00,SSW,206,7.0,15.0,96,0.00,,,0.00,0.000000,,2013-01-11 11:01:00,
2013-01-11 05:23:00,35.0,34.0,-100.00,SSW,206,7.0,15.0,96,0.00,,,0.00,0.000000,,2013-01-11 11:23:00,
2013-01-11 05:33:00,35.0,34.0,-100.00,SSW,206,7.0,15.0,96,0.00,,,0.00,0.000000,,2013-01-11 11:33:00,
2013-01-11 05:43:00,35.0,34.0,-100.00,SSW,206,7.0,15.0,96,0.00,,,0.00,0.000000,,2013-01-11 11:43:00,
2013-01-11 05:53:00,35.0,34.0,-100.00,SSW,206,7.0,15.0,96,0.00,,,0.00,0.000000,,2013-01-11 11:53:00,
2013-01-11 06:01:00,35.0,34.0,-100.00,SW,216,6.0,16.0,95,0.00,,,-99.99,0.000000,,2013-01-11 12:01:00,
2013-01-11 06:23:00,35.0,34.0,-100.00,SW,216,6.0,16.0,95,0.00,,,-99.99,0.000000,,2013-01-11 12:23:00,
2013-01-11 06:33:00,35.0,34.0,-100.00,SW,216,6.0,16.0,95,0.00,,,-99.99,0.000000,,2013-01-11 12:33:00,
2013-01-11 06:43:00,35.0,34.0,-100.00,SW,216,6.0,16.0,95,0.00,,,-99.99,0.000000,,2013-01-11 12:43:00,
2013-01-11 06:53:00,35.0,34.0,-100.00,SW,216,6.0,16.0,95,0.00,,,-99.99,0.000000,,2013-01-11 12:53:00,
2013-01-11 07:01:00,35.0,34.0,-100.00,SSW,205,6.0,11.0,95,0.00,,,-99.99,0.000000,,2013-01-11 13:01:00,
2013-01-11 07:23:00,35.0,34.0,-100.00,SSW,205,6.0,11.0,95,0.00,,,-99.99,0.000000,,2013-01-11 13:23:00,
2013-01-11 07:33:00,35.0,34.0,-100.00,SSW,205,6.0,11.0,95,0.00,,,-99.99,0.000000,,2013-01-11 13:33:00,
2013-01-11 07:43:00,35.0,34.0,-100.00,SSW,205,6.0,11.0,95,0.00,,,-99.99,0.000000,,2013-01-11 13:43:00,
2013-01-11 07:53:00,35.0,34.0,-100.00,SSW,205,6.0,11.0,95,0.00,,,-99.99,0.000000,,2013-01-11 13:53:00,
2013-01-11 08:01:00,35.0,34.0,-100.00,SW,225,4.0,11.0,95,0.00,,,0.00,2.000000,,2013-01-11 14:01:00,
2013-01-11 08:33:00,35.0,34.0,-100.00,SW,225,4.0,11.0,95,0.00,,,0.00,2.000000,,2013-01-11 14:33:00,
2013-01-11 08:43:00,35.0,34.0,-100.00,SW,225,4.0,11.0,95,0.00,,,0.00,2.000000,,2013-01-11 14:43:00,
2013-01-11 08:53:00,35.0,34.0,-100.00,SW,225,4.0,11.0,95,0.00,,,0.00,2.000000,,2013-01-11 14:53:00,
2013-01-11 09:01:00,36.0,34.0,-100.00,SSW,201,3.0,7.0,94,0.00,,,0.00,14.000000,,2013-01-11 15:01:00,
2013-01-11 09:23:00,36.0,34.0,-100.00,SSW,201,3.0,7.0,94,0.00,,,0.00,14.000000,,2013-01-11 15:23:00,
2013-01-11 09:33:00,36.0,34.0,-100.00,SSW,201,3.0,7.0,94,0.00,,,0.00,14.000000,,2013-01-11 15:33:00,
2013-01-11 09:43:00,36.0,34.0,-100.00,SSW,201,3.0,7.0,94,0.00,,,0.00,14.000000,,2013-01-11 15:43:00,
2013-01-11 09:53:00,36.0,34.0,-100.00,SSW,201,3.0,7.0,94,0.00,,,0.00,14.000000,,2013-01-11 15:53:00,
2013-01-11 10:01:00,37.0,35.0,-100.00,SW,216,4.0,10.0,93,0.00,,,0.00,54.000000,,2013-01-11 16:01:00,
2013-01-11 10:33:00,37.0,35.0,-100.00,SW,216,4.0,10.0,93,0.00,,,0.00,54.000000,,2013-01-11 16:33:00,
2013-01-11 10:43:00,37.0,35.0,-100.00,SW,216,4.0,10.0,93,0.00,,,0.00,54.000000,,2013-01-11 16:43:00,
2013-01-11 10:53:00,37.0,35.0,-100.00,SW,216,4.0,10.0,93,0.00,,,0.00,54.000000,,2013-01-11 16:53:00,
2013-01-11 11:01:00,38.0,36.0,-100.00,SW,224,6.0,12.0,92,0.00,,,0.00,127.000000,,2013-01-11 17:01:00,
2013-01-11 11:33:00,38.0,36.0,-100.00,SW,224,6.0,12.0,92,0.00,,,0.00,127.000000,,2013-01-11 17:33:00,
2013-01-11 11:43:00,38.0,36.0,-100.00,SW,224,6.0,12.0,92,0.00,,,0.00,127.000000,,2013-01-11 17:43:00,
2013-01-11 11:53:00,38.0,36.0,-100.00,SW,224,6.0,12.0,92,0.00,,,0.00,127.000000,,2013-01-11 17:53:00,
2013-01-11 12:01:00,39.0,36.0,-100.00,SW,216,5.0,9.0,89,0.00,,,-99.99,172.000000,,2013-01-11 18:01:00,
2013-01-11 12:33:00,39.0,36.0,-100.00,SW,216,5.0,9.0,89,0.00,,,-99.99,172.000000,,2013-01-11 18:33:00,
2013-01-11 12:43:00,39.0,36.0,-100.00,SW,216,5.0,9.0,89,0.00,,,-99.99,172.000000,,2013-01-11 18:43:00,
2013-01-11 12:53:00,39.0,36.0,-100.00,SW,216,5.0,9.0,89,0.00,,,-99.99,172.000000,,2013-01-11 18:53:00,
2013-01-11 13:01:00,39.0,36.0,-100.00,SW,216,4.0,11.0,88,0.00,,,0.00,127.000000,,2013-01-11 19:01:00,
2013-01-11 13:23:00,39.0,36.0,-100.00,SW,216,4.0,11.0,88,0.00,,,0.00,127.000000,,2013-01-11 19:23:00,
2013-01-11 13:33:00,39.0,36.0,-100.00,SW,216,4.0,11.0,88,0.00,,,0.00,127.000000,,2013-01-11 19:33:00,
2013-01-11 13:43:00,39.0,36.0,-100.00,SW,216,4.0,11.0,88,0.00,,,0.00,127.000000,,2013-01-11 19:43:00,
2013-01-11 13:53:00,39.0,36.0,-100.00,SW,216,4.0,11.0,88,0.00,,,0.00,127.000000,,2013-01-11 19:53:00,
2013-01-11 14:01:00,38.0,36.0,-100.00,SSW,198,5.0,11.0,94,0.00,,,-99.99,85.000000,,2013-01-11 20:01:00,
2013-01-11 14:33:00,38.0,36.0,-100.00,SSW,198,5.0,11.0,94,0.00,,,-99.99,85.000000,,2013-01-11 20:33:00,
2013-01-11 14:43:00,38.0,36.0,-100.00,SSW,198,5.0,11.0,94,0.00,,,-99.99,85.000000,,2013-01-11 20:43:00,
2013-01-11 14:53:00,38.0,36.0,-100.00,SSW,198,5.0,11.0,94,0.00,,,-99.99,85.000000,,2013-01-11 20:53:00,
2013-01-11 15:01:00,37.0,36.0,-100.00,SSW,197,3.0,7.0,95,0.00,,,0.00,48.000000,,2013-01-11 21:01:00,
2013-01-11 15:33:00,37.0,36.0,-100.00,SSW,197,3.0,7.0,95,0.00,,,0.00,48.000000,,2013-01-11 21:33:00,
2013-01-11 15:43:00,37.0,36.0,-100.00,SSW,197,3.0,7.0,95,0.00,,,0.00,48.000000,,2013-01-11 21:43:00,
2013-01-11 15:53:00,37.0,36.0,-100.00,SSW,197,3.0,7.0,95,0.00,,,0.00,48.000000,,2013-01-11 21:53:00,
2013-01-11 16:01:00,37.0,36.0,-100.00,South,182,2.0,7.0,97,0.00,,,0.00,20.000000,,2013-01-11 22:01:00,
2013-01-11 16:23:00,37.0,36.0,-100.00,South,182,2.0,7.0,97,0.00,,,0.00,20.000000,,2013-01-11 22:23:00,
2013-01-11 16:33:00,37.0,36.0,-100.00,South,182,2.0,7.0,97,0.00,,,0.00,20.000000,,2013-01-11 22:33:00,
2013-01-11 16:42:00,37.0,36.0,-100.00,South,182,2.0,7.0,97,0.00,,,0.00,20.000000,,2013-01-11 22:42:00,
2013-01-11 16:53:00,37.0,36.0,-100.00,South,182,2.0,7.0,97,0.00,,,0.00,20.000000,,2013-01-11 22:53:00,
2013-01-11 17:01:00,37.0,36.0,-100.00,SSE,163,2.0,6.0,97,0.00,,,0.00,2.000000,,2013-01-11 23:01:00,
2013-01-11 17:23:00,37.0,36.0,-100.00,SSE,163,2.0,6.0,97,0.00,,,0.00,2.000000,,2013-01-11 23:23:00,
2013-01-11 17:33:00,37.0,36.0,-100.00,SSE,163,2.0,6.0,97,0.00,,,0.00,2.000000,,2013-01-11 23:33:00,
2013-01-11 17:43:00,37.0,36.0,-100.00,SSE,163,2.0,6.0,97,0.00,,,0.00,2.000000,,2013-01-11 23:43:00,
2013-01-11 17:53:00,37.0,36.0,-100.00,SSE,163,2.0,6.0,97,0.00,,,0.00,2.000000,,2013-01-11 23:53:00,
2013-01-11 18:01:00,38.0,37.0,-100.00,SSE,162,4.0,10.0,98,0.00,,,0.00,0.000000,,2013-01-12 00:01:00,
2013-01-11 18:33:00,38.0,37.0,-100.00,SSE,162,4.0,10.0,98,0.00,,,0.00,0.000000,,2013-01-12 00:33:00,
2013-01-11 18:43:00,38.0,37.0,-100.00,SSE,162,4.0,10.0,98,0.00,,,0.00,0.000000,,2013-01-12 00:43:00,
2013-01-11 18:53:00,38.0,37.0,-100.00,SSE,162,4.0,10.0,98,0.00,,,0.00,0.000000,,2013-01-12 00:53:00,
2013-01-11 19:01:00,38.0,37.0,-100.00,South,188,5.0,12.0,96,0.00,,,0.00,0.000000,,2013-01-12 01:01:00,
2013-01-11 19:33:00,38.0,37.0,-100.00,South,188,5.0,12.0,96,0.00,,,0.00,0.000000,,2013-01-12 01:33:00,
2013-01-11 19:43:00,38.0,37.0,-100.00,South,188,5.0,12.0,96,0.00,,,0.00,0.000000,,2013-01-12 01:43:00,
2013-01-11 19:52:00,38.0,37.0,-100.00,South,188,5.0,12.0,96,0.00,,,0.00,0.000000,,2013-01-12 01:52:00,
2013-01-11 20:01:00,38.0,37.0,-100.00,South,183,5.0,12.0,96,0.00,,,0.00,0.000000,,2013-01-12 02:01:00,
2013-01-11 20:33:00,38.0,37.0,-100.00,South,183,5.0,12.0,96,0.00,,,0.00,0.000000,,2013-01-12 02:33:00,
2013-01-11 20:43:00,38.0,37.0,-100.00,South,183,5.0,12.0,96,0.00,,,0.00,0.000000,,2013-01-12 02:43:00,
2013-01-11 20:53:00,38.0,37.0,-100.00,South,183,5.0,12.0,96,0.00,,,0.00,0.000000,,2013-01-12 02:53:00,
2013-01-11 21:01:00,39.0,38.0,-100.00,South,179,6.0,12.0,96,0.00,,,0.00,0.000000,,2013-01-12 03:01:00,
2013-01-11 21:33:00,39.0,38.0,-100.00,South,179,6.0,12.0,96,0.00,,,0.00,0.000000,,2013-01-12 03:33:00,
2013-01-11 21:43:00,39.0,38.0,-100.00,South,179,6.0,12.0,96,0.00,,,0.00,0.000000,,2013-01-12 03:43:00,
2013-01-11 21:53:00,39.0,38.0,-100.00,South,179,6.0,12.0,96,0.00,,,0.00,0.000000,,2013-01-12 03:53:00,
2013-01-11 22:01:00,40.0,39.0,-100.00,SSW,210,7.0,15.0,95,0.00,,,0.00,0.000000,,2013-01-12 04:01:00,
2013-01-11 22:22:00,40.0,39.0,-100.00,SSW,210,7.0,15.0,95,0.00,,,0.00,0.000000,,2013-01-12 04:22:00,
2013-01-11 22:33:00,40.0,39.0,-100.00,SSW,210,7.0,15.0,95,0.00,,,0.00,0.000000,,2013-01-12 04:33:00,
2013-01-11 22:43:00,40.0,39.0,-100.00,SSW,210,7.0,15.0,95,0.00,,,0.00,0.000000,,2013-01-12 04:43:00,
2013-01-11 22:52:00,40.0,39.0,-100.00,SSW,210,7.0,15.0,95,0.00,,,0.00,0.000000,,2013-01-12 04:52:00,
2013-01-11 23:01:00,40.0,39.0,-100.00,SW,214,8.0,19.0,95,0.00,,,0.00,0.000000,,2013-01-12 05:01:00,
2013-01-11 23:32:00,40.0,39.0,-100.00,SW,214,8.0,19.0,95,0.00,,,0.00,0.000000,,2013-01-12 05:32:00,
2013-01-11 23:42:00,40.0,39.0,-100.00,SW,214,8.0,19.0,95,0.00,,,0.00,0.000000,,2013-01-12 05:42:00,
2013-01-11 23:52:00,40.0,39.0,-100.00,SW,214,8.0,19.0,95,0.00,,,0.00,0.000000,,2013-01-12 05:52:00,